Content
SEND FEEDBACK

Daily
Averages
Monthly
Summary
United States of America

TAMAQUA, PENNSYLVANIA


Home > North America > United States > Pennsylvania
Elevation: 830 feet     Latitude: 40 48N     Longitude: 075 58W

WEATHER
 
SELECT A DAY
Number of Records: 141,601;   Date Range: 12/16/08 - 11/21/14
 
SHARE

PRINT THIS DATA

[ ← Previous Day ]
WEATHER ALMANAC - JANUARY 31, 2013
[ Next Day → ]
[ °C ]   °F
Weather ElementAverageHighLow
Temperature39.2 °F55.4 °F (3:35 am)26.6 °F (11:35 pm)
Dewpoint26.4 °F53.6 °F (3:35 am)10.4 °F (4:15 pm)
Humidity62.2 %100 % (3:55 am)38 % (4:15 pm)
Barometer29.49 in29.82 in (9:35 pm)29.10 in (4:15 am)
Wind Speed13.9 mph26.5 mph (1:15 pm)
Wind Gust39.1 mph (12:55 pm)
Weather ElementAverage
Visibility8.9 mi
Wind DirectionWSW (238.7 °)

Weather ElementTotal
Precipitation2.26 in
Heating Degree Days24 (Base 65)
Averaged from 69 records on January 31, 2013
WEATHER CONDITIONS BREAKOUT
WIND DIRECTION BREAKOUT
WEATHER BY HOUR - JANUARY 31, 2013
[ °C ]   °F
Local TimeTemperatureDewpointHumidityBarometerVisibilityWind DirectionWind SpeedGust SpeedPrecipitationEventsConditions
12:35 AM53.6 °F51.8 °F94 %29.23 in7.0 miCalm0.13 inRainHeavy Rain
12:55 AM53.6 °F51.8 °F94 %29.21 in7.0 miNorth (10°)9.2 mph0.20 inRainHeavy Rain
1:15 AM53.6 °F51.8 °F94 %29.18 in1.8 miCalm0.19 inRainHeavy Rain
1:35 AM53.6 °F51.8 °F94 %29.16 in3.0 miCalm0.31 inRainHeavy Rain
1:55 AM53.6 °F51.8 °F94 %29.15 in2.5 miCalm0.43 inRainHeavy Rain
2:15 AM53.6 °F51.8 °F94 %29.12 in2.5 miESE (120°)3.5 mph0.07 inRainRain
2:35 AM53.6 °F51.8 °F94 %29.13 in1.2 miWSW (240°)3.5 mph0.22 inRainHeavy Rain
2:55 AM53.6 °F51.8 °F94 %29.13 in4.0 miSSW (200°)9.2 mph0.38 inRainRain
3:15 AM53.6 °F51.8 °F94 %29.14 in7.0 miSW (220°)12.7 mph18.4 mph0.03 inRainHeavy Rain
3:35 AM55.4 °F53.6 °F94 %29.14 in7.0 miSSW (210°)13.8 mph19.6 mph0.10 inRainHeavy Rain
3:55 AM53.6 °F53.6 °F100 %29.13 in10.0 miSSW (210°)13.8 mph0.12 inRainLight Rain
4:15 AM53.6 °F51.8 °F94 %29.10 in10.0 miSW (230°)11.5 mph0.01 inRainLight Rain
4:35 AM53.6 °F51.8 °F94 %29.10 in10.0 miWSW (240°)12.7 mph16.1 mph0.01 inMostly Cloudy
4:55 AM51.8 °F50.0 °F94 %29.10 in10.0 miWSW (240°)12.7 mph23.0 mph0.01 inRainLight Rain
5:15 AM46.4 °F44.6 °F93 %29.16 in5.0 miWest (270°)16.1 mph32.2 mph0.01 inRainRain
5:35 AM42.8 °F41.0 °F93 %29.20 in7.0 miWest (270°)19.6 mph38.0 mph0.02 inRainLight Rain
5:55 AM42.8 °F37.4 °F81 %29.23 in10.0 miWest (270°)19.6 mph32.2 mph0.02 inRainLight Rain
6:15 AM42.8 °F32.0 °F66 %29.25 in10.0 miWest (270°)13.8 mph21.9 mphOvercast
6:35 AM42.8 °F32.0 °F66 %29.27 in10.0 miWest (270°)13.8 mph21.9 mphMostly Cloudy
6:55 AM42.8 °F32.0 °F66 %29.29 in10.0 miWest (260°)13.8 mph21.9 mphMostly Cloudy
7:15 AM42.8 °F32.0 °F66 %29.31 in10.0 miWest (280°)15.0 mph23.0 mphOvercast
7:35 AM41.0 °F30.2 °F65 %29.35 in10.0 miWest (270°)19.6 mph32.2 mphMostly Cloudy
7:55 AM39.2 °F26.6 °F61 %29.37 in10.0 miWest (270°)19.6 mph28.8 mphMostly Cloudy
8:15 AM41.0 °F28.4 °F61 %29.38 in10.0 miWest (270°)16.1 mph27.6 mphMostly Cloudy
8:55 AM39.2 °F24.8 °F56 %29.43 in10.0 miWest (260°)17.3 mph33.4 mphOvercast
9:15 AM39.2 °F23.0 °F52 %29.44 in10.0 miWest (260°)21.9 mph38.0 mphMostly Cloudy
9:35 AM41.0 °F23.0 °F49 %29.45 in10.0 miWest (260°)18.4 mph33.4 mphMostly Cloudy
9:55 AM41.0 °F23.0 °F49 %29.46 in10.0 miWest (270°)20.7 mph29.9 mphOvercast
10:15 AM39.2 °F19.4 °F45 %29.47 in10.0 miWest (280°)24.2 mph36.8 mphMostly Cloudy
10:35 AM37.4 °F19.4 °F48 %29.49 in10.0 miWest (280°)16.1 mph26.5 mphMostly Cloudy
10:55 AM37.4 °F19.4 °F48 %29.50 in10.0 miWest (280°)19.6 mph27.6 mphOvercast
11:15 AM39.2 °F21.2 °F49 %29.50 in10.0 miWest (270°)13.8 mph29.9 mphMostly Cloudy
11:35 AM39.2 °F21.2 °F49 %29.51 in10.0 miWest (260°)16.1 mph26.5 mphOvercast
11:55 AM41.0 °F23.0 °F49 %29.52 in10.0 miWest (270°)19.6 mph35.7 mphOvercast
12:15 PM39.2 °F19.4 °F45 %29.52 in10.0 miWest (270°)19.6 mph31.1 mphScattered Clouds
12:35 PM37.4 °F21.2 °F52 %29.52 in10.0 miWest (260°)15.0 mph27.6 mphScattered Clouds
12:55 PM39.2 °F21.2 °F49 %29.53 in10.0 miWest (280°)20.7 mph39.1 mphScattered Clouds
1:15 PM41.0 °F21.2 °F45 %29.54 in10.0 miWest (280°)26.5 mph36.8 mphMostly Cloudy
1:35 PM39.2 °F17.6 °F42 %29.54 in10.0 miWest (280°)18.4 mph33.4 mphScattered Clouds
1:55 PM39.2 °F17.6 °F42 %29.55 in10.0 miWest (280°)20.7 mph34.5 mphScattered Clouds
2:15 PM37.4 °F17.6 °F45 %29.56 in10.0 miWest (270°)21.9 mph34.5 mphScattered Clouds
2:35 PM37.4 °F17.6 °F45 %29.58 in10.0 miWest (270°)17.3 mph27.6 mphScattered Clouds
2:55 PM35.6 °F15.8 °F44 %29.59 in10.0 miWest (270°)13.8 mph28.8 mphScattered Clouds
3:15 PM33.8 °F19.4 °F56 %29.61 in10.0 miWest (270°)16.1 mph28.8 mphMostly Cloudy
3:35 PM33.8 °F21.2 °F60 %29.65 in10.0 miWest (270°)18.4 mph32.2 mphOvercast
3:55 PM33.8 °F14.0 °F44 %29.65 in10.0 miWest (270°)15.0 mph26.5 mphScattered Clouds
4:15 PM33.8 °F10.4 °F38 %29.66 in10.0 miWest (280°)17.3 mph26.5 mphScattered Clouds
4:35 PM32.0 °F12.2 °F44 %29.67 in10.0 miWest (260°)15.0 mph29.9 mphScattered Clouds
4:55 PM32.0 °F12.2 °F44 %29.68 in10.0 miWSW (250°)15.0 mph21.9 mphScattered Clouds
5:15 PM32.0 °F12.2 °F44 %29.70 in10.0 miWest (270°)15.0 mph32.2 mphScattered Clouds
5:35 PM32.0 °F14.0 °F48 %29.71 in10.0 miWest (260°)8.1 mph18.4 mphClear
5:55 PM32.0 °F14.0 °F48 %29.71 in10.0 miWest (260°)10.4 mph21.9 mphScattered Clouds
6:15 PM32.0 °F15.8 °F51 %29.73 in10.0 miWSW (250°)8.1 mph17.3 mphScattered Clouds
6:35 PM32.0 °F15.8 °F51 %29.74 in10.0 miWest (260°)12.7 mph21.9 mphMostly Cloudy
6:55 PM28.4 °F23.0 °F80 %29.76 in2.0 miWest (260°)10.4 mph21.9 mphSnowLight Snow
7:15 PM30.2 °F21.2 °F69 %29.77 in10.0 miWSW (240°)11.5 mph21.9 mphMostly Cloudy
7:35 PM30.2 °F17.6 °F60 %29.78 in10.0 miWest (270°)15.0 mph28.8 mphScattered Clouds
7:55 PM30.2 °F14.0 °F51 %29.79 in10.0 miWest (280°)19.6 mph26.5 mphClear
8:15 PM30.2 °F12.2 °F47 %29.80 in10.0 miWest (270°)15.0 mph25.3 mphClear
8:35 PM30.2 °F10.4 °F44 %29.80 in10.0 miWest (260°)18.4 mph25.3 mphClear
8:55 PM28.4 °F10.4 °F47 %29.81 in10.0 miWest (260°)11.5 mph21.9 mphClear
9:15 PM28.4 °F12.2 °F51 %29.81 in10.0 miWest (260°)12.7 mph24.2 mphClear
9:35 PM28.4 °F14.0 °F55 %29.82 in10.0 miWSW (240°)13.8 mph19.6 mphScattered Clouds
9:55 PM28.4 °F14.0 °F55 %29.82 in10.0 miWSW (250°)9.2 mph17.3 mphScattered Clouds
10:15 PM28.4 °F12.2 °F51 %29.82 in10.0 miWSW (240°)11.5 mph17.3 mphClear
10:35 PM28.4 °F12.2 °F51 %29.82 in10.0 miWSW (250°)8.1 mph16.1 mphClear
11:15 PM28.4 °F12.2 °F51 %29.82 in10.0 miWSW (250°)8.1 mphScattered Clouds
11:35 PM26.6 °F12.2 °F55 %29.82 in10.0 miWSW (240°)8.1 mphScattered Clouds
11:55 PM26.6 °F12.2 °F55 %29.82 in10.0 miSW (230°)6.9 mphScattered Clouds
Hourly data recorded from KXLL, located miles away from Tamaqua, Pennsylvania







STORIES FROM OUR PARTNERS